[[{"header":{"parameterUnit":"m.s-1","parameterCategory":1,"la1":30.2991,"la2":30.254,"lo1":-89.0895,"lo2":-89.0444,"dy":0.0017,"dx":0.0017,"nx":28,"ny":28,"refTime":"2025-11-24T03:00:00:Z","depth":0,"parameterNumber":2,"parameterNumberName":"U-component_of_WINDS"},"data":[0,0,0,0,0,0,0,0,0,0,0,0,0,0,0,0,0,0,0,0,0,0,0,0,0,0,0,0,0,0,0,0,0,0,0,0,0,0,0,0,0,0,0,0,0,0,0,0,0,0,0,0,0,0,0,0,0,0,1.2213,1.2214,0,1.2292,1.2293,1.2294,1.2272,1.227,1.2269,1.2267,1.2352,1.2356,1.2359,0,0,0,0,0,0,0,0,0,0,0,0,0,1.2048,1.2051,1.2213,1.2214,1.2215,1.2292,1.2293,1.2294,1.2272,1.227,1.2268,1.2267,1.2351,1.2355,1.236,0,0,0,0,0,0,0,0,0,0,0,0,0,1.2122,1.2052,1.2213,1.2213,1.2214,1.2292,1.2293,1.2294,1.2273,1.227,1.2268,1.2266,1.2349,1.2355,1.236,1.2443,0,0,1.2378,1.238,0,0,0,0,0,0,0,0,1.2118,1.2129,1.2212,1.2213,1.2214,1.227,1.2266,1.2344,1.2273,1.2251,1.2267,1.2264,1.2327,1.2334,1.2354,1.2447,1.2451,1.2378,1.2381,1.2384,1.2385,0,0,0,0,0,0,0,1.2113,1.2125,1.2244,1.2213,1.2215,1.2211,1.2219,1.2281,1.2301,1.2252,1.2251,1.226,1.2327,1.2349,1.2356,1.2452,1.2378,1.2383,1.2386,1.2389,1.2619,1.2621,0,0,0,0,0,0,1.2106,1.2121,1.2242,1.2247,1.2159,1.2216,1.2225,1.2254,1.2301,1.2305,1.2262,1.2259,1.2341,1.235,1.2359,1.246,1.2384,1.2389,1.2392,1.2616,1.2619,1.2622,0,0,0,0,0,0,1.2103,1.2117,1.2239,1.2183,1.2199,1.2221,1.2255,1.2257,1.2279,1.2308,1.2312,1.2281,1.2339,1.2351,1.2423,1.2462,1.2392,1.2397,1.2613,1.2617,1.2621,1.2661,0,0,0,0,0,0,1.2098,1.2116,1.2147,1.2184,1.2202,1.23,1.2257,1.2261,1.2288,1.2285,1.2326,1.2331,1.2338,1.2414,1.2428,1.2469,1.2401,1.2609,1.2615,1.2619,1.2657,1.2666,1.2675,0,0,0,0,0,1.2092,1.2156,1.2149,1.2163,1.224,1.2302,1.2312,1.2317,1.2292,1.2323,1.2342,1.233,1.2456,1.2422,1.2437,1.248,1.2607,1.2613,1.2619,1.2653,1.2665,1.2675,0,0,0,0,0,0,1.2124,1.2161,1.2153,1.223,1.2263,1.2298,1.2338,1.233,1.2372,1.2367,1.2373,1.2383,1.2456,1.2475,1.2437,1.2564,1.2528,1.2537,1.2548,1.256,1.2568,1.2562,1.2406,0,0,0,0,0,1.214,1.2185,1.2216,1.2281,1.2298,1.2315,1.2342,1.2344,1.2378,1.2393,1.2416,1.2452,1.2499,1.2531,1.2576,1.266,1.2669,1.2697,1.2706,1.2713,1.2722,1.2768,1.2781,1.2642,1.2642,1.2642,0,0,1.2173,1.2199,1.2227,1.2288,1.2313,1.2362,1.2327,1.238,1.2416,1.2401,1.2469,1.2489,1.2529,1.2606,1.2642,1.2625,1.2762,1.2721,1.2727,1.2731,1.2776,1.2789,1.28,1.2646,1.2646,1.2645,0,0,1.2258,1.2282,1.2339,1.2365,1.2404,1.2415,1.2429,1.2466,1.2478,1.2546,1.2536,1.2581,1.2662,1.2691,1.2717,1.2814,1.2805,1.2829,1.2876,1.2922,1.2933,1.2942,1.2977,1.299,1.2837,1.2837,1.2837,0,1.2295,1.2366,1.237,1.2423,1.2451,1.2439,1.2497,1.2523,1.2575,1.2595,1.2575,1.2678,1.2704,1.2789,1.2813,1.2834,1.285,1.2824,1.293,1.294,1.2949,1.2983,1.2996,1.284,1.284,1.2839,1.2839,0,1.2409,1.2459,1.2501,1.255,1.2583,1.2639,1.2653,1.2685,1.2684,1.2698,1.2769,1.28,1.2852,1.2872,1.2873,1.2958,1.2946,1.2928,1.2892,1.2965,1.2997,1.301,1.2844,1.2843,1.2842,1.2841,0,0,1.2516,1.2567,1.2582,1.2605,1.2647,1.2687,1.2743,1.2792,1.2821,1.2858,1.2906,1.2975,1.2959,1.2988,1.2992,1.3032,1.3108,1.3009,1.301,1.3026,1.3204,1.3217,1.3232,1.3102,1.3104,1.3106,1.3201,0,1.2604,1.2702,1.2707,1.2796,1.2843,1.2833,1.2882,1.2914,1.2929,1.2972,1.2989,1.3039,1.3014,1.3031,1.307,1.309,1.3143,1.3083,1.3147,1.3149,1.3137,1.3248,1.3262,1.335,1.3213,1.3215,1.3217,0,1.2721,1.276,1.2853,1.289,1.291,1.2953,1.3,1.3041,1.3078,1.3086,1.3119,1.3117,1.3176,1.3138,1.3221,1.318,1.3207,1.3221,1.3224,1.323,1.3187,1.3257,1.3378,1.3391,1.3236,1.3235,1.3234,0,1.2789,1.2866,1.2931,1.2951,1.2995,1.3026,1.3047,1.3081,1.3111,1.3152,1.3172,1.322,1.3246,1.3284,1.3296,1.3267,1.3378,1.3341,1.3387,1.3387,1.3411,1.3409,1.3537,1.3429,1.3428,1.3428,1.3428,0,1.2887,1.2945,1.2962,1.3003,1.3067,1.3074,1.3139,1.3157,1.3188,1.3233,1.3228,1.3271,1.3284,1.3329,1.3339,1.3406,1.3418,1.3427,1.3429,1.3427,1.3426,1.3445,1.3439,1.3432,1.3431,1.343,1.343,0,1.2974,1.2988,1.3059,1.3095,1.3106,1.3152,1.3183,1.3223,1.3237,1.3295,1.3308,1.3332,1.3385,1.34,1.3465,1.3472,1.355,1.3547,1.3537,1.3537,1.3583,1.3578,1.3727,1.3747,1.3625,1.3627,1.3628,0,1.3035,1.3079,1.312,1.3149,1.317,1.3217,1.3248,1.3257,1.3289,1.3335,1.3369,1.3422,1.3464,1.355,1.3573,1.3623,1.362,1.3669,1.3628,1.3625,1.3621,1.3618,1.3623,1.3677,1.3678,1.3679,1.368,0,1.3143,1.3148,1.3191,1.3237,1.3273,1.331,1.3345,1.337,1.3385,1.3421,1.3475,1.3507,1.3573,1.3625,1.3676,1.3698,1.3692,1.3693,1.3706,1.3705,1.3697,1.3702,1.3558,1.3689,1.3688,1.3688,1.3687,1.3687,1.3219,1.3258,1.3293,1.3341,1.3369,1.3402,1.3441,1.3461,1.3505,1.3558,1.3562,1.362,1.3657,1.3724,1.3749,1.3796,1.3782,1.3801,1.3806,1.3811,1.3814,1.369,1.3805,1.3805,1.3805,1.3805,1.3805,0,1.3327,1.3349,1.3393,1.3442,1.3481,1.3471,1.351,1.3543,1.3594,1.3629,1.3671,1.3733,1.3784,1.3812,1.3863,1.3896,1.3894,1.3909,1.3906,1.3912,1.3824,1.3807,1.3909,1.3909,1.3909,1.3909,1.3909,1.3909,1.3387,1.3452,1.3461,1.3541,1.3563,1.3619,1.3642,1.3673,1.3701,1.3771,1.3812,1.383,1.3863,1.3916,1.3963,1.397,1.3989,1.4005,1.4011,1.3928,1.3918,1.3907,1.3892,1.401,1.401,1.4094,1.4095,1.4096]},{"header":{"parameterUnit":"m.s-1","parameterCategory":1,"la1":30.2991,"la2":30.254,"lo1":-89.0895,"lo2":-89.0444,"dy":0.0017,"dx":0.0017,"nx":28,"ny":28,"refTime":"2025-11-24T03:00:00:Z","depth":0,"parameterNumber":3,"parameterNumberName":"V-component_of_WINDS"},"data":[0,0,0,0,0,0,0,0,0,0,0,0,0,0,0,0,0,0,0,0,0,0,0,0,0,0,0,0,0,0,0,0,0,0,0,0,0,0,0,0,0,0,0,0,0,0,0,0,0,0,0,0,0,0,0,0,0,0,-0.89,-0.8901,0,-0.891,-0.8911,-0.8911,-0.9013,-0.9015,-0.9018,-0.902,-0.9026,-0.9024,-0.9021,0,0,0,0,0,0,0,0,0,0,0,0,0,-0.8968,-0.8966,-0.89,-0.8901,-0.8901,-0.891,-0.8911,-0.8911,-0.9012,-0.9015,-0.9018,-0.9021,-0.9026,-0.9024,-0.9021,0,0,0,0,0,0,0,0,0,0,0,0,0,-0.8954,-0.8966,-0.89,-0.8953,-0.8957,-0.891,-0.8911,-0.8911,-0.9011,-0.9015,-0.9019,-0.9023,-0.9027,-0.9024,-0.9021,-0.8923,0,0,-0.901,-0.9009,0,0,0,0,0,0,0,0,-0.8955,-0.8952,-0.8945,-0.8949,-0.8954,-0.8964,-0.8937,-0.8915,-0.901,-0.8991,-0.902,-0.9025,-0.9002,-0.9001,-0.8994,-0.8923,-0.8924,-0.901,-0.9008,-0.9007,-0.9006,0,0,0,0,0,0,0,-0.8956,-0.8952,-0.8904,-0.8945,-0.895,-0.8975,-0.8977,-0.8933,-0.8974,-0.8993,-0.9,-0.9,-0.9005,-0.8997,-0.8995,-0.8924,-0.901,-0.9007,-0.9005,-0.9004,-0.8778,-0.8774,0,0,0,0,0,0,-0.895,-0.8952,-0.8904,-0.8905,-0.8964,-0.8971,-0.8973,-0.8957,-0.8975,-0.8982,-0.8997,-0.9005,-0.9001,-0.8999,-0.8996,-0.8886,-0.9007,-0.9004,-0.9002,-0.8782,-0.8777,-0.8773,0,0,0,0,0,0,-0.8951,-0.8945,-0.8904,-0.893,-0.8927,-0.8966,-0.8946,-0.8955,-0.8947,-0.8979,-0.8986,-0.8981,-0.9004,-0.9,-0.8942,-0.8887,-0.9002,-0.8999,-0.8787,-0.8781,-0.8775,-0.8663,0,0,0,0,0,0,-0.8952,-0.8944,-0.8907,-0.8929,-0.8925,-0.8849,-0.8943,-0.8953,-0.8942,-0.8952,-0.8966,-0.8972,-0.9007,-0.8946,-0.8938,-0.8885,-0.8996,-0.8792,-0.8784,-0.8777,-0.8672,-0.8654,-0.8639,0,0,0,0,0,-0.8954,-0.8873,-0.8905,-0.8899,-0.888,-0.8846,-0.8844,-0.8887,-0.8937,-0.8901,-0.8922,-0.8971,-0.8894,-0.8939,-0.8931,-0.8876,-0.8796,-0.8786,-0.8778,-0.8679,-0.8657,-0.8639,0,0,0,0,0,0,-0.8842,-0.8877,-0.8912,-0.8836,-0.8838,-0.8863,-0.8818,-0.8862,-0.8848,-0.8858,-0.8912,-0.8914,-0.8848,-0.8856,-0.8905,-0.8785,-0.8854,-0.8843,-0.8782,-0.8761,-0.8745,-0.8745,-0.8994,0,0,0,0,0,-0.8808,-0.8779,-0.8811,-0.874,-0.874,-0.8779,-0.8765,-0.8799,-0.8802,-0.8803,-0.8819,-0.8819,-0.8796,-0.8779,-0.8759,-0.8674,-0.8679,-0.8632,-0.8615,-0.8601,-0.8591,-0.8551,-0.8531,-0.8744,-0.8744,-0.8744,0,0,-0.8738,-0.8754,-0.8731,-0.8718,-0.8723,-0.8692,-0.8778,-0.874,-0.8717,-0.8796,-0.8744,-0.8755,-0.876,-0.8688,-0.8658,-0.8693,-0.8534,-0.859,-0.8579,-0.8576,-0.854,-0.852,-0.8502,-0.8738,-0.8739,-0.874,0,0,-0.8595,-0.8603,-0.8547,-0.8552,-0.856,-0.8588,-0.8574,-0.8594,-0.8606,-0.8554,-0.8615,-0.8588,-0.8545,-0.8547,-0.8542,-0.8405,-0.8451,-0.8396,-0.831,-0.827,-0.8253,-0.8239,-0.8192,-0.8175,-0.8386,-0.8386,-0.8386,0,-0.8506,-0.8462,-0.8512,-0.8472,-0.8465,-0.8539,-0.8484,-0.8485,-0.8485,-0.8479,-0.8519,-0.8471,-0.8478,-0.841,-0.8377,-0.837,-0.8358,-0.8395,-0.8252,-0.8238,-0.8225,-0.8181,-0.8163,-0.8379,-0.838,-0.8381,-0.8382,0,-0.8354,-0.8323,-0.8277,-0.8279,-0.8267,-0.8218,-0.8262,-0.8244,-0.828,-0.8303,-0.8251,-0.8264,-0.8249,-0.8235,-0.8268,-0.8173,-0.8196,-0.8243,-0.8314,-0.8197,-0.8158,-0.8141,-0.837,-0.8373,-0.8374,-0.8376,0,0,-0.8137,-0.8172,-0.8154,-0.8158,-0.8174,-0.8151,-0.8107,-0.8095,-0.808,-0.8078,-0.8044,-0.8009,-0.8054,-0.8049,-0.8083,-0.8047,-0.7942,-0.81,-0.8101,-0.8072,-0.7842,-0.7807,-0.7787,-0.7973,-0.797,-0.7968,-0.7843,0,-0.8002,-0.7931,-0.7977,-0.7898,-0.7872,-0.7943,-0.7906,-0.7912,-0.7933,-0.7914,-0.7937,-0.7912,-0.7972,-0.797,-0.7939,-0.7961,-0.7897,-0.7971,-0.7943,-0.7941,-0.7941,-0.7766,-0.7728,-0.761,-0.7827,-0.7824,-0.7822,0,-0.7833,-0.7828,-0.7748,-0.7774,-0.7765,-0.773,-0.7726,-0.7705,-0.7715,-0.7733,-0.773,-0.7774,-0.7734,-0.7804,-0.7751,-0.78,-0.7792,-0.7802,-0.7798,-0.7798,-0.7875,-0.7763,-0.7572,-0.7555,-0.7798,-0.78,-0.7801,0,-0.7687,-0.7659,-0.7609,-0.761,-0.7638,-0.7613,-0.7623,-0.7637,-0.7628,-0.7624,-0.762,-0.7609,-0.7604,-0.7595,-0.7637,-0.7683,-0.7579,-0.7652,-0.7594,-0.7593,-0.7569,-0.7571,-0.7377,-0.7561,-0.7561,-0.7561,-0.7562,0,-0.7531,-0.7479,-0.7545,-0.7513,-0.7459,-0.7513,-0.7458,-0.7476,-0.7488,-0.7462,-0.7522,-0.7497,-0.7552,-0.7533,-0.7564,-0.7517,-0.7514,-0.7528,-0.7538,-0.7524,-0.7522,-0.7519,-0.7529,-0.7557,-0.7558,-0.7559,-0.7559,0,-0.7357,-0.7399,-0.7349,-0.7382,-0.739,-0.7348,-0.7376,-0.7349,-0.7377,-0.7344,-0.7339,-0.7381,-0.7362,-0.7402,-0.7387,-0.7409,-0.7343,-0.7364,-0.7341,-0.7348,-0.7289,-0.7295,-0.7088,-0.7065,-0.7262,-0.726,-0.7258,0,-0.7256,-0.7219,-0.7249,-0.7238,-0.7246,-0.7226,-0.7219,-0.7271,-0.7262,-0.7273,-0.7245,-0.7231,-0.7223,-0.7189,-0.7218,-0.7208,-0.7231,-0.7159,-0.7229,-0.7218,-0.7233,-0.7235,-0.7233,-0.7144,-0.7142,-0.714,-0.7138,0,-0.7072,-0.7096,-0.7085,-0.7081,-0.7072,-0.7071,-0.7075,-0.7062,-0.7118,-0.7104,-0.7087,-0.7081,-0.7068,-0.7055,-0.7052,-0.7063,-0.711,-0.7116,-0.7103,-0.7089,-0.7078,-0.7086,-0.7303,-0.7121,-0.7122,-0.7124,-0.7125,-0.7125,-0.6934,-0.6906,-0.6925,-0.6911,-0.692,-0.6923,-0.6901,-0.6927,-0.6914,-0.691,-0.6941,-0.6918,-0.6932,-0.6934,-0.6941,-0.6923,-0.6956,-0.6935,-0.6931,-0.6925,-0.6917,-0.708,-0.6922,-0.6923,-0.6924,-0.6924,-0.6924,0,-0.6756,-0.6773,-0.676,-0.6765,-0.6755,-0.6803,-0.681,-0.6798,-0.6778,-0.6788,-0.678,-0.6762,-0.675,-0.678,-0.6773,-0.6753,-0.6775,-0.675,-0.6753,-0.6755,-0.6887,-0.6901,-0.6733,-0.6733,-0.6733,-0.6733,-0.6733,-0.6733,-0.6662,-0.6619,-0.6645,-0.6608,-0.6625,-0.6605,-0.6605,-0.6609,-0.6618,-0.6596,-0.6587,-0.6608,-0.6627,-0.6622,-0.6614,-0.6624,-0.6619,-0.6587,-0.6603,-0.6726,-0.6745,-0.6763,-0.6776,-0.6585,-0.6584,-0.6473,-0.6472,-0.6471]}]]